Location: Unspecified
(42.3650°N, 71.1030°W)
Time: 16:28:25
(UTC+00:00)

Transit 2A - Pass Details

Date: 28 June 2024
Orbit: 591 x 960 km, 66.7° (Epoch: 16 July)

Event Time Altitude Azimuth Distance (km) Brightness Sun altitude
Rises 02:06:26 0° 335° (NNW) 3,529 11.1 -14.6°
Reaches altitude 10° 02:09:13 10° 345° (NNW) 2,627 9.9 -14.9°
Maximum altitude 02:14:40 31° 47° (NE) 1,592 7.7 -15.5°
Enters shadow 02:19:19 14° 104° (ESE) 2,414 8.1 -16.0°
